ASTRA 1F

Last updated on Mon Nov 09 2020 06:17:43 GMT+0000 (Coordinated Universal Time)

1 23842U 96021A 20312.75299840 -.00000226 00000-0 00000-0 0 9990 2 23842 0.1836 85.1591 0002988 123.9510 67.6347 0.99119708 31805
UTC large
Height (km)
Speed (km/s)
/
Latitude / Longitude
Inclination (degrees)
Orbital Period (minutes)
Azimuth
Elevation
Range (km)
Doppler Factor

Next 0 passes for location: London (51.5072 / 0.1276)

Sorry there are no passes over London.